| time (UTC) | temp F | wind direction | speed knots | gust knots | rain 1hr in | rain 24hr in | rain mn in | humidity % | barometer mb |
| 20260906111558 | 66 | 0.0 | 0.0 | 0.18 | 0.19 | 0.18 | 98 | 1017.8 | |
| 20260906110110 | 66 | 0.0 | 0.0 | 0.00 | 0.01 | 0.00 | 98 | 1017.7 | |
| 20260906104604 | 66 | 0.0 | 0.0 | 0.00 | 0.01 | 0.00 | 98 | 1017.6 | |
| 20260906103106 | 66 | 0.0 | 0.0 | 0.00 | 0.01 | 0.00 | 98 | 1017.5 | |
| 20260906101606 | 65 | 0.0 | 0.0 | 0.00 | 0.01 | 0.00 | 98 | 1017.2 | |
| 20260906100112 | 65 | 0.0 | 0.0 | 0.00 | 0.01 | 0.00 | 98 | 1017.3 | |
| 20260906094601 | 65 | 0.0 | 0.0 | 0.00 | 0.01 | 0.00 | 98 | 1017.1 | |
| 20260906093107 | 65 | 0.0 | 0.0 | 0.00 | 0.01 | 0.00 | 98 | 1017.1 | |
| 20260906091616 | 64 | 0.0 | 0.0 | 0.00 | 0.01 | 0.00 | 97 | 1017.1 | |
| 20260906090112 | 64 | 0.0 | 0.0 | 0.00 | 0.01 | 0.00 | 97 | 1016.8 | |
| 20260906084605 | 64 | 0.0 | 0.0 | 0.00 | 0.01 | 0.00 | 97 | 1017.0 | |
| 20260906083058 | 64 | 0.0 | 0.0 | 0.00 | 0.01 | 0.00 | 97 | 1016.9 | |
| 20260906081604 | 64 | 0.0 | 0.0 | 0.00 | 0.01 | 0.00 | 97 | 1017.0 | |
| 20260906080111 | 64 | 0.0 | 0.0 | 0.00 | 0.01 | 0.00 | 97 | 1016.9 | |
| 20260906074601 | 64 | 0.0 | 0.0 | 0.00 | 0.01 | 0.00 | 97 | 1017.0 | |
| 20260906073104 | 64 | 0.0 | 0.0 | 0.00 | 0.01 | 0.00 | 97 | 1017.0 | |
| 20260906071616 | 65 | 0.0 | 0.0 | 0.00 | 0.01 | 0.00 | 97 | 1017.1 | |
| 20260906070109 | 65 | 0.0 | 0.0 | 0.00 | 0.01 | 0.00 | 97 | 1017.0 | |
| 20260906064602 | 65 | 0.0 | 0.0 | 0.00 | 0.01 | 0.00 | 96 | 1017.0 | |
| 20260906063106 | 65 | 0.0 | 0.0 | 0.00 | 0.01 | 0.00 | 96 | 1017.3 | |
| 20260906061558 | 65 | 0.0 | 0.0 | 0.00 | 0.01 | 0.00 | 96 | 1017.6 | |
| 20260906060155 | 66 | 0.0 | 0.0 | 0.00 | 0.01 | 0.00 | 96 | 1017.6 | |
| 20260906054611 | 66 | 0.0 | 0.0 | 0.00 | 0.01 | 0.00 | 96 | 1017.7 | |
| 20260906053105 | 66 | 0.0 | 0.0 | 0.00 | 0.01 | 0.00 | 96 | 1017.7 | |
| 20260906051606 | 66 | 0.0 | 0.0 | 0.00 | 0.01 | 0.00 | 96 | 1017.6 | |
| 20260906050116 | 66 | 0.0 | 0.0 | 0.00 | 0.01 | 0.00 | 95 | 1017.9 | |
| 20260906044558 | 66 | 0.0 | 0.0 | 0.00 | 0.01 | 0.00 | 95 | 1017.7 | |
| 20260906043100 | 67 | 0.0 | 0.0 | 0.00 | 0.01 | 0.00 | 95 | 1017.5 | |
| 20260906041604 | 67 | 0.0 | 0.0 | 0.00 | 0.01 | 0.00 | 94 | 1017.6 | |
| 20260906040106 | 67 | 0.0 | 0.0 | 0.00 | 0.01 | 0.00 | 93 | 1017.7 | |
| 20260906034601 | 68 | 0.0 | 0.0 | 0.00 | 0.01 | 0.01 | 93 | 1017.7 | |
| 20260906033059 | 68 | 0.0 | 0.0 | 0.00 | 0.01 | 0.01 | 93 | 1018.1 | |
| 20260906031630 | 69 | 0.0 | 0.0 | 0.00 | 0.01 | 0.01 | 92 | 1018.2 | |
| 20260906030104 | 69 | 0.0 | 0.0 | 0.00 | 0.01 | 0.01 | 92 | 1018.4 | |
| 20260906024605 | 69 | 0.0 | 0.0 | 0.00 | 0.01 | 0.01 | 91 | 1018.6 | |
| 20260906023109 | 70 | 0.0 | 0.0 | 0.00 | 0.01 | 0.01 | 90 | 1018.4 | |
| 20260906021555 | 70 | 0.0 | 0.0 | 0.00 | 0.01 | 0.01 | 88 | 1018.5 | |
| 20260906020105 | 71 | 0.0 | 0.0 | 0.00 | 0.01 | 0.01 | 87 | 1018.5 | |
| 20260906014557 | 72 | 0.0 | 0.0 | 0.00 | 0.01 | 0.01 | 86 | 1018.4 | |
| 20260906013105 | 72 | 0.0 | 0.0 | 0.00 | 0.01 | 0.01 | 85 | 1018.4 | |
| 20260906011607 | 73 | 0.0 | 0.0 | 0.00 | 0.01 | 0.01 | 85 | 1018.3 | |
| 20260906010059 | 73 | 0.0 | 0.0 | 0.00 | 0.01 | 0.01 | 83 | 1018.0 | |
| 20260906004602 | 74 | 0.0 | 0.0 | 0.00 | 0.01 | 0.01 | 81 | 1018.0 | |
| 20260906003057 | 74 | 0.0 | 0.0 | 0.00 | 0.01 | 0.01 | 80 | 1017.7 | |
| 20260906001556 | 74 | 0.0 | 0.0 | 0.00 | 0.01 | 0.01 | 79 | 1017.8 | |
| 20260906000105 | 75 | 0.0 | 0.0 | 0.00 | 0.01 | 0.01 | 78 | 1017.7 | |
| 20260905234601 | 75 | 0.0 | 0.0 | 0.00 | 0.01 | 0.01 | 76 | 1017.6 | |
| 20260905233103 | 76 | 0.0 | 0.0 | 0.00 | 0.01 | 0.01 | 75 | 1017.4 | |
| 20260905231616 | 77 | 0.0 | 0.0 | 0.00 | 0.01 | 0.01 | 73 | 1017.7 | |
| 20260905230112 | 77 | 0.0 | 0.0 | 0.00 | 0.01 | 0.01 | 71 | 1017.7 | |
| 20260905224559 | 78 | 0.0 | 0.0 | 0.00 | 0.01 | 0.01 | 70 | 1017.6 | |
| 20260905223105 | 78 | 0.0 | 0.0 | 0.00 | 0.01 | 0.01 | 68 | 1017.5 | |
| 20260905221607 | 79 | 0.0 | 0.0 | 0.00 | 0.01 | 0.01 | 67 | 1017.7 | |
| 20260905220111 | 80 | 0.0 | 0.0 | 0.00 | 0.01 | 0.01 | 65 | 1017.4 | |
| 20260905214608 | 82 | 0.0 | 0.0 | 0.00 | 0.01 | 0.01 | 63 | 1017.4 | |
| 20260905213056 | 82 | 0.0 | 0.0 | 0.00 | 0.01 | 0.01 | 63 | 1017.3 | |
| 20260905211605 | 82 | 0.0 | 0.0 | 0.00 | 0.01 | 0.01 | 63 | 1017.1 | |
| 20260905210108 | 82 | 0.0 | 0.0 | 0.00 | 0.01 | 0.01 | 63 | 1017.1 | |
| 20260905204556 | 82 | 0.0 | 0.0 | 0.00 | 0.30 | 0.01 | 66 | 1017.1 | |
| 20260905203102 | 82 | 0.0 | 0.0 | 0.00 | 0.30 | 0.01 | 68 | 1016.9 | |
| 20260905201559 | 82 | 0.0 | 0.0 | 0.00 | 0.30 | 0.01 | 67 | 1017.0 | |
| 20260905200130 | 82 | 0.0 | 0.0 | 0.00 | 0.30 | 0.01 | 64 | 1017.2 | |
| 20260905194604 | 82 | 0.0 | 0.0 | 0.00 | 0.30 | 0.01 | 63 | 1017.2 | |
| 20260905193103 | 82 | 0.0 | 0.0 | 0.00 | 0.30 | 0.01 | 61 | 1017.5 | |
| 20260905191605 | 83 | 0.0 | 0.0 | 0.00 | 0.30 | 0.01 | 64 | 1017.5 | |
| 20260905190104 | 82 | 0.0 | 0.0 | 0.00 | 0.30 | 0.01 | 68 | 1017.6 | |
| 20260905184606 | 81 | 0.0 | 0.0 | 0.00 | 0.30 | 0.01 | 74 | 1017.8 | |
| 20260905183059 | 80 | 0.0 | 0.0 | 0.00 | 0.30 | 0.01 | 77 | 1018.0 | |
| 20260905181603 | 79 | 0.0 | 0.0 | 0.00 | 0.30 | 0.01 | 76 | 1018.2 | |
| 20260905180116 | 79 | 0.0 | 0.0 | 0.00 | 0.30 | 0.01 | 78 | 1018.4 | |
| 20260905174559 | 78 | 0.0 | 0.0 | 0.00 | 0.30 | 0.01 | 78 | 1018.4 | |
| 20260905173114 | 77 | 0.0 | 0.0 | 0.00 | 0.30 | 0.01 | 79 | 1018.5 | |
| 20260905171606 | 76 | 0.0 | 0.0 | 0.00 | 0.30 | 0.01 | 83 | 1018.2 | |
| 20260905170106 | 74 | 0.0 | 0.0 | 0.00 | 0.30 | 0.01 | 86 | 1018.6 | |
| 20260905164615 | 74 | 0.0 | 0.0 | 0.00 | 0.30 | 0.01 | 86 | 1019.0 | |
| 20260905163058 | 73 | 0.0 | 0.0 | 0.00 | 0.30 | 0.01 | 87 | 1019.5 | |
| 20260905161608 | 73 | 0.0 | 0.0 | 0.00 | 0.30 | 0.01 | 88 | 1020.0 | |
| 20260905160105 | 73 | 0.0 | 0.0 | 0.00 | 0.30 | 0.01 | 87 | 1020.3 | |
| 20260905154605 | 73 | 0.0 | 0.0 | 0.00 | 0.30 | 0.01 | 87 | 1020.5 | |
| 20260905153104 | 73 | 0.0 | 0.0 | 0.00 | 0.30 | 0.01 | 87 | 1020.7 | |
| 20260905151602 | 73 | 0.0 | 0.0 | 0.00 | 0.30 | 0.01 | 88 | 1020.7 | |
| 20260905150104 | 71 | 0.0 | 0.0 | 0.00 | 0.30 | 0.01 | 90 | 1020.6 | |
| 20260905144556 | 72 | 0.0 | 0.0 | 0.00 | 0.30 | 0.01 | 88 | 1020.3 | |
| 20260905143105 | 76 | 0.0 | 0.0 | 0.00 | 0.30 | 0.01 | 86 | 1020.3 | |
| 20260905141605 | 76 | 0.0 | 0.0 | 0.00 | 0.30 | 0.01 | 86 | 1019.3 | |
| 20260905140112 | 76 | 0.0 | 0.0 | 0.01 | 0.30 | 0.01 | 86 | 1019.4 | |
| 20260905134606 | 76 | 0.0 | 0.0 | 0.01 | 0.30 | 0.01 | 87 | 1019.3 | |
| 20260905133059 | 75 | 0.0 | 0.0 | 0.01 | 0.30 | 0.01 | 89 | 1019.4 | |
| 20260905131557 | 73 | 0.0 | 0.0 | 0.01 | 0.30 | 0.01 | 91 | 1019.3 | |
| 20260905130106 | 71 | 0.0 | 0.0 | 0.00 | 0.29 | 0.00 | 96 | 1019.3 | |
| 20260905124604 | 69 | 0.0 | 0.0 | 0.00 | 0.29 | 0.00 | 99 | 1019.4 | |
| 20260905123105 | 68 | 0.0 | 0.0 | 0.00 | 0.29 | 0.00 | 99 | 1019.4 | |
| 20260905121601 | 67 | 0.0 | 0.0 | 0.00 | 0.29 | 0.00 | 99 | 1019.3 | |
| 20260905120109 | 66 | 0.0 | 0.0 | 0.00 | 0.29 | 0.00 | 99 | 1019.0 | |
| 20260905114611 | 66 | 0.0 | 0.0 | 0.00 | 0.29 | 0.00 | 99 | 1018.9 | |
| 20260905113101 | 65 | 0.0 | 0.0 | 0.00 | 0.29 | 0.00 | 99 | 1018.8 |